Time,TemperatureF,DewpointF,PressureIn,WindDirection,WindDirectionDegrees,WindSpeedMPH,WindSpeedGustMPH,Humidity,HourlyPrecipIn,Conditions,Clouds,dailyrainin,SolarRadiationWatts/m^2,SoftwareType,DateUTC
2013-11-15 00:01:00,38.6,24.7,30.08,SSW,202,1.6,3.5,57,0.00,SCT,,0.00,0.0,WeatherDisplay:10.37,2013-11-15 05:01:00,
2013-11-15 00:02:00,38.5,24.6,30.08,SSW,197,3.4,5.8,57,0.00,SCT,,0.00,0.0,WeatherDisplay:10.37,2013-11-15 05:02:00,
2013-11-15 00:07:00,38.4,24.5,30.08,South,187,1.8,3.5,57,0.00,SCT,,0.00,0.0,WeatherDisplay:10.37,2013-11-15 05:07:00,
2013-11-15 00:12:00,38.3,24.8,30.08,South,186,1.6,3.5,58,0.00,SCT,,0.00,0.0,WeatherDisplay:10.37,2013-11-15 05:12:00,
2013-11-15 00:17:00,38.1,24.6,30.08,SW,232,1.9,3.5,58,0.00,SCT,,0.00,0.0,WeatherDisplay:10.37,2013-11-15 05:17:00,
2013-11-15 00:22:00,38.1,24.6,30.08,SSW,203,1.7,3.5,58,0.00,SCT,,0.00,0.0,WeatherDisplay:10.37,2013-11-15 05:22:00,
2013-11-15 00:27:00,38.0,24.9,30.08,SSW,196,1.1,2.3,59,0.00,SCT,,0.00,0.0,WeatherDisplay:10.37,2013-11-15 05:27:00,
2013-11-15 00:32:00,38.0,24.9,30.08,SSW,194,1.6,3.5,59,0.00,SCT,,0.00,0.0,WeatherDisplay:10.37,2013-11-15 05:32:00,
2013-11-15 00:37:00,37.9,24.8,30.08,SSW,194,2.0,3.5,59,0.00,SCT,,0.00,0.0,WeatherDisplay:10.37,2013-11-15 05:37:00,
2013-11-15 00:42:00,37.8,24.7,30.08,WSW,252,1.5,3.5,59,0.00,SCT,,0.00,0.0,WeatherDisplay:10.37,2013-11-15 05:42:00,
2013-11-15 00:47:00,37.8,24.7,30.08,South,186,5.4,8.1,59,0.00,SCT,,0.00,0.0,WeatherDisplay:10.37,2013-11-15 05:47:00,
2013-11-15 00:52:00,37.8,24.7,30.08,SSE,165,2.8,4.6,59,0.00,SCT,,0.00,0.0,WeatherDisplay:10.37,2013-11-15 05:52:00,
2013-11-15 00:57:00,37.8,24.7,30.08,SSE,150,2.9,4.6,59,0.00,SCT,,0.00,0.0,WeatherDisplay:10.37,2013-11-15 05:57:00,
2013-11-15 01:02:00,37.8,24.7,30.08,SSW,193,3.3,4.6,59,0.00,SCT,,0.00,0.0,WeatherDisplay:10.37,2013-11-15 06:02:00,
2013-11-15 01:07:00,37.8,24.7,30.08,South,173,3.0,5.8,59,0.00,SCT,,0.00,0.0,WeatherDisplay:10.37,2013-11-15 06:07:00,
2013-11-15 01:12:00,37.8,24.7,30.08,SW,235,1.3,3.5,59,0.00,SCT,,0.00,0.0,WeatherDisplay:10.37,2013-11-15 06:12:00,
2013-11-15 01:17:00,37.7,24.6,30.07,SSW,205,1.6,3.5,59,0.00,SCT,,0.00,0.0,WeatherDisplay:10.37,2013-11-15 06:17:00,
2013-11-15 01:22:00,37.7,25.1,30.07,SSW,199,2.2,3.5,60,0.00,SCT,,0.00,0.0,WeatherDisplay:10.37,2013-11-15 06:22:00,
2013-11-15 01:27:00,37.6,25.0,30.07,WNW,300,2.3,5.8,60,0.00,SCT,,0.00,0.0,WeatherDisplay:10.37,2013-11-15 06:27:00,
2013-11-15 01:32:00,37.5,24.9,30.07,SSW,200,2.3,4.6,60,0.00,SCT,,0.00,0.0,WeatherDisplay:10.37,2013-11-15 06:32:00,
2013-11-15 01:37:00,37.5,24.9,30.07,SSW,198,3.7,6.0,60,0.00,SCT,,0.00,0.0,WeatherDisplay:10.37,2013-11-15 06:37:00,
2013-11-15 01:42:00,37.4,24.8,30.08,WSW,250,1.9,3.5,60,0.00,SCT,,0.00,0.0,WeatherDisplay:10.37,2013-11-15 06:42:00,
2013-11-15 01:47:00,37.3,25.1,30.08,SW,227,1.5,3.5,61,0.00,SCT,,0.00,0.0,WeatherDisplay:10.37,2013-11-15 06:47:00,
2013-11-15 01:52:00,37.3,25.1,30.08,South,178,0.9,3.5,61,0.00,SCT,,0.00,0.0,WeatherDisplay:10.37,2013-11-15 06:52:00,
2013-11-15 01:57:00,37.2,25.0,30.08,South,178,3.0,4.0,61,0.00,SCT,,0.00,0.0,WeatherDisplay:10.37,2013-11-15 06:57:00,
2013-11-15 02:02:00,37.1,24.9,30.08,SSW,213,2.3,4.6,61,0.00,SCT,,0.00,0.0,WeatherDisplay:10.37,2013-11-15 07:02:00,
2013-11-15 02:07:00,37.1,24.9,30.07,SW,230,1.5,5.0,61,0.00,SCT,,0.00,0.0,WeatherDisplay:10.37,2013-11-15 07:07:00,
2013-11-15 02:12:00,37.1,24.9,30.08,South,180,2.1,5.0,61,0.00,SCT,,0.00,0.0,WeatherDisplay:10.37,2013-11-15 07:12:00,
2013-11-15 02:17:00,37.0,24.8,30.08,South,178,1.4,4.6,61,0.00,SCT,,0.00,0.0,WeatherDisplay:10.37,2013-11-15 07:17:00,
2013-11-15 02:22:00,36.9,25.1,30.07,SW,230,2.8,4.6,62,0.00,SCT,,0.00,0.0,WeatherDisplay:10.37,2013-11-15 07:22:00,
2013-11-15 02:27:00,36.8,25.0,30.08,South,184,2.3,3.5,62,0.00,SCT,,0.00,0.0,WeatherDisplay:10.37,2013-11-15 07:27:00,
2013-11-15 02:32:00,36.8,25.0,30.08,South,183,3.3,4.6,62,0.00,SCT,,0.00,0.0,WeatherDisplay:10.37,2013-11-15 07:32:00,
2013-11-15 02:37:00,36.8,25.0,30.08,SSW,196,1.8,3.5,62,0.00,SCT,,0.00,0.0,WeatherDisplay:10.37,2013-11-15 07:37:00,
2013-11-15 02:42:00,36.7,24.9,30.08,SW,233,2.5,3.5,62,0.00,SCT,,0.00,0.0,WeatherDisplay:10.37,2013-11-15 07:42:00,
2013-11-15 02:47:00,36.6,24.8,30.08,SSW,194,3.2,5.8,62,0.00,SCT,,0.00,0.0,WeatherDisplay:10.37,2013-11-15 07:47:00,
2013-11-15 02:52:00,36.6,25.2,30.08,South,182,1.7,4.0,63,0.00,SCT,,0.00,0.0,WeatherDisplay:10.37,2013-11-15 07:52:00,
2013-11-15 02:58:00,36.5,25.1,30.08,South,173,2.6,3.5,63,0.00,SCT,,0.00,0.0,WeatherDisplay:10.37,2013-11-15 07:58:00,
2013-11-15 03:03:00,36.4,25.0,30.08,South,191,3.6,4.0,63,0.00,BKN,,0.00,0.0,WeatherDisplay:10.37,2013-11-15 08:03:00,
2013-11-15 03:08:00,36.3,24.9,30.08,South,179,2.2,3.5,63,0.00,BKN,,0.00,0.0,WeatherDisplay:10.37,2013-11-15 08:08:00,
2013-11-15 03:13:00,36.3,25.3,30.08,SSE,159,2.9,3.5,64,0.00,BKN,,0.00,0.0,WeatherDisplay:10.37,2013-11-15 08:13:00,
2013-11-15 03:18:00,36.1,25.1,30.08,SSE,159,2.6,3.5,64,0.00,BKN,,0.00,0.0,WeatherDisplay:10.37,2013-11-15 08:18:00,
2013-11-15 03:23:00,36.1,25.1,30.08,South,190,0.4,3.5,64,0.00,BKN,,0.00,0.0,WeatherDisplay:10.37,2013-11-15 08:23:00,
2013-11-15 03:28:00,36.0,25.0,30.08,SSE,162,2.5,4.0,64,0.00,BKN,,0.00,0.0,WeatherDisplay:10.37,2013-11-15 08:28:00,
2013-11-15 03:33:00,36.0,25.0,30.07,South,175,1.9,3.5,64,0.00,BKN,,0.00,0.0,WeatherDisplay:10.37,2013-11-15 08:33:00,
2013-11-15 03:38:00,36.0,25.0,30.07,South,181,1.4,3.5,64,0.00,BKN,,0.00,0.0,WeatherDisplay:10.37,2013-11-15 08:38:00,
2013-11-15 03:43:00,36.0,25.4,30.07,SW,236,0.9,3.5,65,0.00,BKN,,0.00,0.0,WeatherDisplay:10.37,2013-11-15 08:43:00,
2013-11-15 03:48:00,36.0,25.4,30.07,SSW,206,0.9,2.3,65,0.00,BKN,,0.00,0.0,WeatherDisplay:10.37,2013-11-15 08:48:00,
2013-11-15 03:53:00,36.0,25.4,30.07,WSW,242,1.7,3.5,65,0.00,BKN,,0.00,0.0,WeatherDisplay:10.37,2013-11-15 08:53:00,
2013-11-15 03:58:00,36.1,25.5,30.07,South,187,2.0,3.5,65,0.00,BKN,,0.00,0.0,WeatherDisplay:10.37,2013-11-15 08:58:00,
2013-11-15 04:03:00,36.1,25.5,30.07,South,184,2.0,3.5,65,0.00,BKN,,0.00,0.0,WeatherDisplay:10.37,2013-11-15 09:03:00,
2013-11-15 04:08:00,36.1,25.1,30.07,South,188,2.8,4.0,64,0.00,BKN,,0.00,0.0,WeatherDisplay:10.37,2013-11-15 09:08:00,
2013-11-15 04:13:00,36.2,25.6,30.07,SSW,196,1.7,3.5,65,0.00,BKN,,0.00,0.0,WeatherDisplay:10.37,2013-11-15 09:13:00,
2013-11-15 04:18:00,36.1,25.5,30.07,South,171,2.0,3.5,65,0.00,BKN,,0.00,0.0,WeatherDisplay:10.37,2013-11-15 09:18:00,
2013-11-15 04:23:00,36.2,25.2,30.07,South,188,2.5,3.5,64,0.00,BKN,,0.00,0.0,WeatherDisplay:10.37,2013-11-15 09:23:00,
2013-11-15 04:28:00,36.3,25.3,30.07,SSW,198,3.3,6.9,64,0.00,BKN,,0.00,0.0,WeatherDisplay:10.37,2013-11-15 09:28:00,
2013-11-15 04:33:00,36.4,25.4,30.07,South,176,0.7,2.3,64,0.00,BKN,,0.00,0.0,WeatherDisplay:10.37,2013-11-15 09:33:00,
2013-11-15 04:38:00,36.4,25.4,30.07,West,262,1.7,4.6,64,0.00,BKN,,0.00,0.0,WeatherDisplay:10.37,2013-11-15 09:38:00,
2013-11-15 04:43:00,36.5,25.5,30.07,SSW,209,3.8,4.0,64,0.00,BKN,,0.00,0.0,WeatherDisplay:10.37,2013-11-15 09:43:00,
2013-11-15 04:48:00,36.6,25.6,30.07,South,180,1.9,3.5,64,0.00,BKN,,0.00,0.0,WeatherDisplay:10.37,2013-11-15 09:48:00,
2013-11-15 04:53:00,36.8,25.4,30.07,SSW,209,3.4,4.6,63,0.00,BKN,,0.00,0.0,WeatherDisplay:10.37,2013-11-15 09:53:00,
2013-11-15 04:58:00,36.8,25.4,30.07,SW,235,3.5,3.5,63,0.00,BKN,,0.00,0.0,WeatherDisplay:10.37,2013-11-15 09:58:00,
2013-11-15 05:03:00,36.7,25.7,30.07,SW,214,1.3,4.6,64,0.00,OVC,,0.00,0.0,WeatherDisplay:10.37,2013-11-15 10:03:00,
2013-11-15 05:08:00,36.8,25.4,30.08,SE,140,2.6,4.6,63,0.00,OVC,,0.00,0.0,WeatherDisplay:10.37,2013-11-15 10:08:00,
2013-11-15 05:13:00,36.9,25.5,30.07,SSE,159,4.2,4.6,63,0.00,OVC,,0.00,0.0,WeatherDisplay:10.37,2013-11-15 10:13:00,
2013-11-15 05:18:00,37.0,25.6,30.07,South,190,2.8,4.0,63,0.00,OVC,,0.00,0.0,WeatherDisplay:10.37,2013-11-15 10:18:00,
2013-11-15 05:23:00,37.1,25.7,30.07,South,188,2.7,3.5,63,0.00,OVC,,0.00,0.0,WeatherDisplay:10.37,2013-11-15 10:23:00,
2013-11-15 05:28:00,37.1,25.7,30.07,SSW,200,1.5,4.6,63,0.00,OVC,,0.00,0.0,WeatherDisplay:10.37,2013-11-15 10:28:00,
2013-11-15 05:33:00,37.1,25.7,30.07,SSW,195,3.7,3.7,63,0.00,OVC,,0.00,0.0,WeatherDisplay:10.37,2013-11-15 10:33:00,
2013-11-15 05:38:00,37.3,25.8,30.07,SSW,196,0.5,3.5,63,0.00,OVC,,0.00,0.0,WeatherDisplay:10.37,2013-11-15 10:38:00,
2013-11-15 05:43:00,37.4,25.6,30.07,SSW,197,1.9,4.6,62,0.00,OVC,,0.00,0.0,WeatherDisplay:10.37,2013-11-15 10:43:00,
2013-11-15 05:48:00,37.5,25.7,30.07,SW,217,1.4,3.5,62,0.00,OVC,,0.00,0.0,WeatherDisplay:10.37,2013-11-15 10:48:00,
2013-11-15 05:53:00,37.6,25.7,30.07,SSW,200,4.4,6.9,62,0.00,OVC,,0.00,0.0,WeatherDisplay:10.37,2013-11-15 10:53:00,
2013-11-15 05:58:00,37.7,25.8,30.07,SSE,157,3.2,4.6,62,0.00,OVC,,0.00,0.0,WeatherDisplay:10.37,2013-11-15 10:58:00,
2013-11-15 06:03:00,37.8,25.9,30.07,SSE,167,2.0,3.5,62,0.00,OVC,,0.00,0.0,WeatherDisplay:10.37,2013-11-15 11:03:00,
2013-11-15 06:08:00,37.8,25.5,30.07,South,175,3.0,3.5,61,0.00,OVC,,0.00,0.0,WeatherDisplay:10.37,2013-11-15 11:08:00,
2013-11-15 06:13:00,37.9,26.0,30.07,SW,224,3.8,6.9,62,0.00,OVC,,0.00,0.0,WeatherDisplay:10.37,2013-11-15 11:13:00,
2013-11-15 06:18:00,38.1,25.8,30.07,SW,215,2.7,6.0,61,0.00,OVC,,0.00,0.0,WeatherDisplay:10.37,2013-11-15 11:18:00,
2013-11-15 06:23:00,38.3,26.0,30.07,South,189,3.4,5.8,61,0.00,OVC,,0.00,0.0,WeatherDisplay:10.37,2013-11-15 11:23:00,
2013-11-15 06:28:00,38.4,26.1,30.07,SSW,209,2.1,4.6,61,0.00,OVC,,0.00,0.0,WeatherDisplay:10.37,2013-11-15 11:28:00,
2013-11-15 06:33:00,38.6,25.9,30.07,SW,220,3.2,10.0,60,0.00,OVC,,0.00,0.0,WeatherDisplay:10.37,2013-11-15 11:33:00,
2013-11-15 06:38:00,38.8,26.1,30.07,South,184,1.1,2.3,60,0.00,OVC,,0.00,0.0,WeatherDisplay:10.37,2013-11-15 11:38:00,
2013-11-15 06:43:00,39.0,25.9,30.07,West,273,2.7,6.9,59,0.00,OVC,,0.00,0.0,WeatherDisplay:10.37,2013-11-15 11:43:00,
2013-11-15 06:48:00,39.1,26.0,30.07,SSE,167,4.3,6.9,59,0.00,OVC,,0.00,0.0,WeatherDisplay:10.37,2013-11-15 11:48:00,
2013-11-15 06:53:00,39.1,26.0,30.07,SSW,210,3.0,4.6,59,0.00,OVC,,0.00,0.0,WeatherDisplay:10.37,2013-11-15 11:53:00,
2013-11-15 06:58:00,39.1,26.0,30.07,SSW,192,1.6,3.5,59,0.00,OVC,,0.00,0.0,WeatherDisplay:10.37,2013-11-15 11:58:00,
2013-11-15 07:03:00,39.2,26.1,30.07,SW,216,3.8,6.9,59,0.00,OVC,,0.00,0.0,WeatherDisplay:10.37,2013-11-15 12:03:00,
2013-11-15 07:08:00,39.3,26.2,30.08,SSW,199,0.6,3.5,59,0.00,OVC,,0.00,0.0,WeatherDisplay:10.37,2013-11-15 12:08:00,
2013-11-15 07:13:00,39.3,26.2,30.08,WSW,244,2.8,4.6,59,0.00,OVC,,0.00,0.0,WeatherDisplay:10.37,2013-11-15 12:13:00,
2013-11-15 07:18:00,39.4,25.8,30.08,SSE,165,1.7,3.5,58,0.00,OVC,,0.00,0.0,WeatherDisplay:10.37,2013-11-15 12:18:00,
2013-11-15 07:23:00,39.5,25.9,30.08,SE,144,2.1,3.5,58,0.00,OVC,,0.00,0.0,WeatherDisplay:10.37,2013-11-15 12:23:00,
2013-11-15 07:28:00,39.6,26.4,30.08,South,188,1.5,4.6,59,0.00,OVC,,0.00,0.0,WeatherDisplay:10.37,2013-11-15 12:28:00,
2013-11-15 07:33:00,39.5,26.3,30.08,South,190,1.8,4.6,59,0.00,OVC,,0.00,5.0,WeatherDisplay:10.37,2013-11-15 12:33:00,
2013-11-15 07:38:00,39.5,26.3,30.08,SSE,161,1.5,3.5,59,0.00,OVC,,0.00,9.0,WeatherDisplay:10.37,2013-11-15 12:38:00,
2013-11-15 07:43:00,39.5,26.3,30.08,South,176,3.0,3.5,59,0.00,OVC,,0.00,12.0,WeatherDisplay:10.37,2013-11-15 12:43:00,
2013-11-15 07:48:00,39.5,26.3,30.08,South,171,3.7,6.0,59,0.00,OVC,,0.00,16.0,WeatherDisplay:10.37,2013-11-15 12:48:00,
2013-11-15 07:53:00,39.5,26.3,30.08,SSW,194,1.5,4.6,59,0.00,OVC,,0.00,18.0,WeatherDisplay:10.37,2013-11-15 12:53:00,
2013-11-15 07:58:00,39.5,26.3,30.08,SSE,149,1.9,3.5,59,0.00,OVC,,0.00,25.0,WeatherDisplay:10.37,2013-11-15 12:58:00,
2013-11-15 08:03:00,39.5,26.3,30.08,WSW,249,1.7,3.5,59,0.00,OVC,,0.00,33.0,WeatherDisplay:10.37,2013-11-15 13:03:00,
2013-11-15 08:08:00,39.5,26.3,30.09,South,180,1.4,3.5,59,0.00,OVC,,0.00,46.0,WeatherDisplay:10.37,2013-11-15 13:08:00,
2013-11-15 08:13:00,39.6,26.4,30.09,SSW,212,2.2,3.5,59,0.00,OVC,,0.00,60.0,WeatherDisplay:10.37,2013-11-15 13:13:00,
2013-11-15 08:18:00,39.6,26.4,30.08,West,265,2.5,3.5,59,0.00,OVC,,0.00,56.0,WeatherDisplay:10.37,2013-11-15 13:18:00,
2013-11-15 08:23:00,39.8,26.6,30.09,SSW,202,3.8,4.6,59,0.00,OVC,,0.00,60.0,WeatherDisplay:10.37,2013-11-15 13:23:00,
2013-11-15 08:28:00,40.0,26.8,30.09,South,169,3.4,5.8,59,0.00,OVC,,0.00,74.0,WeatherDisplay:10.37,2013-11-15 13:28:00,
2013-11-15 08:33:00,40.1,26.9,30.09,SSW,193,3.9,5.8,59,0.00,OVC,,0.00,77.0,WeatherDisplay:10.37,2013-11-15 13:33:00,
2013-11-15 08:38:00,40.3,27.1,30.09,SSW,205,1.4,3.5,59,0.00,OVC,,0.00,91.0,WeatherDisplay:10.37,2013-11-15 13:38:00,
2013-11-15 08:43:00,40.4,27.2,30.09,South,180,3.3,4.6,59,0.00,OVC,,0.00,104.0,WeatherDisplay:10.37,2013-11-15 13:43:00,
2013-11-15 08:48:00,40.6,27.4,30.09,SSE,155,1.1,5.0,59,0.00,OVC,,0.00,109.0,WeatherDisplay:10.37,2013-11-15 13:48:00,
2013-11-15 08:53:00,40.8,27.2,30.09,SW,232,2.9,4.6,58,0.00,OVC,,0.00,109.0,WeatherDisplay:10.37,2013-11-15 13:53:00,
2013-11-15 08:58:00,41.1,27.4,30.09,SSW,207,5.1,8.1,58,0.00,OVC,,0.00,104.0,WeatherDisplay:10.37,2013-11-15 13:58:00,
2013-11-15 09:03:00,41.2,27.1,30.09,SSW,192,3.3,4.6,57,0.00,OVC,,0.00,120.0,WeatherDisplay:10.37,2013-11-15 14:03:00,
2013-11-15 09:08:00,41.4,27.7,30.09,South,190,6.7,11.5,58,0.00,OVC,,0.00,116.0,WeatherDisplay:10.37,2013-11-15 14:08:00,
2013-11-15 09:13:00,41.6,27.5,30.09,West,264,4.7,9.0,57,0.00,OVC,,0.00,130.0,WeatherDisplay:10.37,2013-11-15 14:13:00,
2013-11-15 09:18:00,41.7,28.0,30.09,ENE,67,2.5,3.5,58,0.00,OVC,,0.00,139.0,WeatherDisplay:10.37,2013-11-15 14:18:00,
2013-11-15 09:23:00,42.0,27.9,30.09,WSW,256,1.1,3.5,57,0.00,OVC,,0.00,163.0,WeatherDisplay:10.37,2013-11-15 14:23:00,
2013-11-15 09:28:00,42.3,27.7,30.09,WSW,243,4.3,9.2,56,0.00,OVC,,0.00,193.0,WeatherDisplay:10.37,2013-11-15 14:28:00,
2013-11-15 09:33:00,42.5,27.9,30.09,West,273,2.2,4.6,56,0.00,OVC,,0.00,165.0,WeatherDisplay:10.37,2013-11-15 14:33:00,
2013-11-15 09:38:00,42.9,28.3,30.09,WSW,243,2.2,4.6,56,0.00,OVC,,0.00,172.0,WeatherDisplay:10.37,2013-11-15 14:38:00,
2013-11-15 09:43:00,42.9,27.4,30.09,SW,236,6.5,10.4,54,0.00,OVC,,0.00,158.0,WeatherDisplay:10.37,2013-11-15 14:43:00,
2013-11-15 09:48:00,43.1,28.0,30.09,South,189,3.9,4.6,55,0.00,OVC,,0.00,257.0,WeatherDisplay:10.37,2013-11-15 14:48:00,
2013-11-15 09:53:00,43.3,28.2,30.09,SW,220,3.8,8.1,55,0.00,OVC,,0.00,155.0,WeatherDisplay:10.37,2013-11-15 14:53:00,
2013-11-15 09:58:00,43.4,27.8,30.09,South,187,3.5,6.9,54,0.00,OVC,,0.00,199.0,WeatherDisplay:10.37,2013-11-15 14:58:00,
2013-11-15 10:03:00,43.6,28.0,30.09,WSW,247,2.7,4.6,54,0.00,OVC,,0.00,153.0,WeatherDisplay:10.37,2013-11-15 15:03:00,
2013-11-15 10:08:00,43.7,28.1,30.08,SW,220,3.5,4.6,54,0.00,OVC,,0.00,165.0,WeatherDisplay:10.37,2013-11-15 15:08:00,
2013-11-15 10:13:00,43.8,28.2,30.09,WNW,289,1.9,4.6,54,0.00,OVC,,0.00,223.0,WeatherDisplay:10.37,2013-11-15 15:13:00,
2013-11-15 10:18:00,44.1,28.0,30.09,West,266,3.0,9.2,53,0.00,OVC,,0.00,441.0,WeatherDisplay:10.37,2013-11-15 15:18:00,
2013-11-15 10:23:00,44.5,28.4,30.09,West,269,3.8,8.0,53,0.00,OVC,,0.00,269.0,WeatherDisplay:10.37,2013-11-15 15:23:00,
2013-11-15 10:28:00,44.7,28.6,30.09,West,281,2.9,6.0,53,0.00,OVC,,0.00,227.0,WeatherDisplay:10.37,2013-11-15 15:28:00,
2013-11-15 10:33:00,45.2,29.1,30.09,SW,221,3.0,5.0,53,0.00,OVC,,0.00,288.0,WeatherDisplay:10.37,2013-11-15 15:33:00,
2013-11-15 10:38:00,45.6,29.0,30.09,SW,221,4.5,6.9,52,0.00,OVC,,0.00,413.0,WeatherDisplay:10.37,2013-11-15 15:38:00,
2013-11-15 10:43:00,46.2,29.1,30.09,SW,232,4.7,9.2,51,0.00,OVC,,0.00,355.0,WeatherDisplay:10.37,2013-11-15 15:43:00,
2013-11-15 10:48:00,46.5,29.8,30.09,SW,221,2.7,9.2,52,0.00,OVC,,0.00,265.0,WeatherDisplay:10.37,2013-11-15 15:48:00,
2013-11-15 10:53:00,46.7,29.0,30.09,South,180,2.5,11.5,50,0.00,OVC,,0.00,552.0,WeatherDisplay:10.37,2013-11-15 15:53:00,
2013-11-15 10:58:00,47.0,29.3,30.09,WSW,246,3.7,10.0,50,0.00,OVC,,0.00,513.0,WeatherDisplay:10.37,2013-11-15 15:58:00,
2013-11-15 11:03:00,46.8,29.6,30.09,SW,223,1.8,4.6,51,0.00,BKN,,0.00,216.0,WeatherDisplay:10.37,2013-11-15 16:03:00,
2013-11-15 11:08:00,46.7,29.5,30.09,West,264,4.4,10.0,51,0.00,BKN,,0.00,213.0,WeatherDisplay:10.37,2013-11-15 16:08:00,
2013-11-15 11:13:00,46.5,28.8,30.09,South,171,3.8,11.0,50,0.00,BKN,,0.00,220.0,WeatherDisplay:10.37,2013-11-15 16:13:00,
2013-11-15 11:18:00,46.5,29.3,30.09,SW,215,3.0,4.6,51,0.00,BKN,,0.00,258.0,WeatherDisplay:10.37,2013-11-15 16:18:00,
2013-11-15 11:23:00,46.6,28.9,30.09,West,269,5.8,9.2,50,0.00,BKN,,0.00,258.0,WeatherDisplay:10.37,2013-11-15 16:23:00,
2013-11-15 11:28:00,46.8,30.1,30.09,South,176,2.1,4.6,52,0.00,BKN,,0.00,265.0,WeatherDisplay:10.37,2013-11-15 16:28:00,
2013-11-15 11:33:00,47.1,29.9,30.08,South,186,3.1,5.0,51,0.00,BKN,,0.00,295.0,WeatherDisplay:10.37,2013-11-15 16:33:00,
2013-11-15 11:38:00,47.3,30.1,30.08,West,274,3.5,5.0,51,0.00,BKN,,0.00,272.0,WeatherDisplay:10.37,2013-11-15 16:38:00,
2013-11-15 11:43:00,47.4,29.7,30.08,SSE,148,4.1,7.0,50,0.00,BKN,,0.00,204.0,WeatherDisplay:10.37,2013-11-15 16:43:00,
2013-11-15 11:48:00,47.3,30.1,30.08,SW,221,2.0,3.5,51,0.00,BKN,,0.00,202.0,WeatherDisplay:10.37,2013-11-15 16:48:00,
2013-11-15 11:53:00,47.3,29.6,30.08,SW,231,5.1,8.0,50,0.00,BKN,,0.00,255.0,WeatherDisplay:10.37,2013-11-15 16:53:00,
2013-11-15 11:58:00,47.3,29.6,30.08,West,264,3.5,6.9,50,0.00,BKN,,0.00,316.0,WeatherDisplay:10.37,2013-11-15 16:58:00,
2013-11-15 12:03:00,47.6,29.9,30.08,SW,221,4.9,10.4,50,0.00,OVC,,0.00,257.0,WeatherDisplay:10.37,2013-11-15 17:03:00,
2013-11-15 12:08:00,47.5,30.3,30.08,West,268,1.6,4.0,51,0.00,OVC,,0.00,188.0,WeatherDisplay:10.37,2013-11-15 17:08:00,
2013-11-15 12:13:00,47.5,29.3,30.08,SW,231,5.5,8.1,49,0.00,OVC,,0.00,192.0,WeatherDisplay:10.37,2013-11-15 17:13:00,
2013-11-15 12:18:00,47.4,29.7,30.08,SSW,204,2.4,4.6,50,0.00,OVC,,0.00,220.0,WeatherDisplay:10.37,2013-11-15 17:18:00,
2013-11-15 12:23:00,47.6,29.4,30.07,SW,234,3.9,6.9,49,0.00,OVC,,0.00,316.0,WeatherDisplay:10.37,2013-11-15 17:23:00,
2013-11-15 12:28:00,47.7,29.5,30.06,SW,224,2.4,3.5,49,0.00,OVC,,0.00,316.0,WeatherDisplay:10.37,2013-11-15 17:28:00,
2013-11-15 12:33:00,48.1,29.8,30.06,SW,223,3.0,8.1,49,0.00,OVC,,0.00,292.0,WeatherDisplay:10.37,2013-11-15 17:33:00,
2013-11-15 12:38:00,47.9,29.6,30.06,WNW,296,2.8,5.8,49,0.00,OVC,,0.00,248.0,WeatherDisplay:10.37,2013-11-15 17:38:00,
2013-11-15 12:43:00,47.8,29.0,30.06,SSW,193,3.4,4.6,48,0.00,OVC,,0.00,197.0,WeatherDisplay:10.37,2013-11-15 17:43:00,
2013-11-15 12:48:00,47.6,29.4,30.06,West,271,4.5,6.9,49,0.00,OVC,,0.00,183.0,WeatherDisplay:10.37,2013-11-15 17:48:00,
2013-11-15 12:53:00,47.4,29.2,30.06,South,191,3.7,5.8,49,0.00,OVC,,0.00,199.0,WeatherDisplay:10.37,2013-11-15 17:53:00,
2013-11-15 12:58:00,47.4,29.7,30.06,South,184,3.8,8.1,50,0.00,OVC,,0.00,206.0,WeatherDisplay:10.37,2013-11-15 17:58:00,
2013-11-15 13:03:00,47.4,29.7,30.07,SSW,213,3.6,6.9,50,0.00,OVC,,0.00,199.0,WeatherDisplay:10.37,2013-11-15 18:03:00,
2013-11-15 13:08:00,47.4,29.7,30.07,SSW,204,3.3,5.8,50,0.00,OVC,,0.00,195.0,WeatherDisplay:10.37,2013-11-15 18:08:00,
2013-11-15 13:13:00,47.2,29.5,30.06,West,261,3.5,9.2,50,0.00,OVC,,0.00,192.0,WeatherDisplay:10.37,2013-11-15 18:13:00,
2013-11-15 13:18:00,47.1,29.9,30.06,South,188,2.1,11.5,51,0.00,OVC,,0.00,195.0,WeatherDisplay:10.37,2013-11-15 18:18:00,
2013-11-15 13:23:00,46.9,29.2,30.06,SW,221,2.3,6.9,50,0.00,OVC,,0.00,200.0,WeatherDisplay:10.37,2013-11-15 18:23:00,
2013-11-15 13:28:00,47.0,29.8,30.06,SSW,194,2.2,9.2,51,0.00,OVC,,0.00,204.0,WeatherDisplay:10.37,2013-11-15 18:28:00,
2013-11-15 13:33:00,47.1,29.4,30.05,SW,230,6.1,10.4,50,0.00,OVC,,0.00,202.0,WeatherDisplay:10.37,2013-11-15 18:33:00,
2013-11-15 13:39:00,47.2,29.5,30.06,South,169,2.8,4.6,50,0.00,OVC,,0.00,197.0,WeatherDisplay:10.37,2013-11-15 18:39:00,
2013-11-15 13:44:00,47.2,29.5,30.05,West,277,3.1,6.9,50,0.00,OVC,,0.00,209.0,WeatherDisplay:10.37,2013-11-15 18:44:00,
2013-11-15 13:49:00,47.4,30.2,30.05,SSE,159,1.0,3.5,51,0.00,OVC,,0.00,199.0,WeatherDisplay:10.37,2013-11-15 18:49:00,
2013-11-15 13:54:00,47.5,29.8,30.05,WSW,242,3.8,6.9,50,0.00,OVC,,0.00,199.0,WeatherDisplay:10.37,2013-11-15 18:54:00,
2013-11-15 13:59:00,47.7,29.5,30.04,WNW,302,3.0,6.9,49,0.00,OVC,,0.00,230.0,WeatherDisplay:10.37,2013-11-15 18:59:00,
2013-11-15 14:04:00,47.9,29.6,30.05,SW,230,4.4,5.0,49,0.00,OVC,,0.00,195.0,WeatherDisplay:10.37,2013-11-15 19:04:00,
2013-11-15 14:09:00,48.1,29.8,30.05,SE,131,2.9,5.8,49,0.00,OVC,,0.00,260.0,WeatherDisplay:10.37,2013-11-15 19:09:00,
2013-11-15 14:14:00,48.4,30.1,30.04,SSW,201,4.0,5.8,49,0.00,OVC,,0.00,306.0,WeatherDisplay:10.37,2013-11-15 19:14:00,
2013-11-15 14:19:00,49.0,30.7,30.05,South,170,4.5,5.0,49,0.00,OVC,,0.00,399.0,WeatherDisplay:10.37,2013-11-15 19:19:00,
2013-11-15 14:24:00,49.7,30.8,30.05,SE,132,3.7,5.8,48,0.00,OVC,,0.00,403.0,WeatherDisplay:10.37,2013-11-15 19:24:00,
2013-11-15 14:29:00,50.2,30.7,30.05,SSW,205,3.0,10.4,47,0.00,OVC,,0.00,415.0,WeatherDisplay:10.37,2013-11-15 19:29:00,
2013-11-15 14:34:00,50.5,31.0,30.05,SSE,152,4.1,7.0,47,0.00,OVC,,0.00,385.0,WeatherDisplay:10.37,2013-11-15 19:34:00,
2013-11-15 14:39:00,50.4,29.8,30.05,WSW,249,5.9,10.4,45,0.00,OVC,,0.00,320.0,WeatherDisplay:10.37,2013-11-15 19:39:00,
2013-11-15 14:44:00,49.7,29.7,30.05,SE,130,3.2,6.9,46,0.00,OVC,,0.00,121.0,WeatherDisplay:10.37,2013-11-15 19:44:00,
2013-11-15 14:49:00,49.4,30.5,30.05,West,271,3.4,6.0,48,0.00,OVC,,0.00,213.0,WeatherDisplay:10.37,2013-11-15 19:49:00,
2013-11-15 14:54:00,49.4,30.0,30.05,SW,215,5.2,10.4,47,0.00,OVC,,0.00,359.0,WeatherDisplay:10.37,2013-11-15 19:54:00,
2013-11-15 14:59:00,49.6,29.6,30.04,SSW,213,5.4,6.9,46,0.00,OVC,,0.00,246.0,WeatherDisplay:10.37,2013-11-15 19:59:00,
2013-11-15 15:04:00,49.6,29.6,30.05,WSW,254,4.1,5.8,46,0.00,BKN,,0.00,294.0,WeatherDisplay:10.37,2013-11-15 20:04:00,
2013-11-15 15:09:00,50.2,30.7,30.04,SSW,213,4.6,11.5,47,0.00,BKN,,0.00,332.0,WeatherDisplay:10.37,2013-11-15 20:09:00,
2013-11-15 15:14:00,50.5,29.9,30.04,SW,225,4.5,6.9,45,0.00,BKN,,0.00,264.0,WeatherDisplay:10.37,2013-11-15 20:14:00,
2013-11-15 15:19:00,50.6,30.0,30.04,SW,232,4.7,5.8,45,0.00,BKN,,0.00,276.0,WeatherDisplay:10.37,2013-11-15 20:19:00,
2013-11-15 15:24:00,50.7,30.7,30.04,SSW,213,1.7,3.5,46,0.00,BKN,,0.00,265.0,WeatherDisplay:10.37,2013-11-15 20:24:00,
2013-11-15 15:29:00,51.0,30.4,30.04,South,171,3.9,5.8,45,0.00,BKN,,0.00,255.0,WeatherDisplay:10.37,2013-11-15 20:29:00,
2013-11-15 15:34:00,51.2,30.6,30.04,SSE,158,3.3,6.9,45,0.00,BKN,,0.00,237.0,WeatherDisplay:10.37,2013-11-15 20:34:00,
2013-11-15 15:39:00,51.2,31.1,30.04,WSW,240,4.0,6.9,46,0.00,BKN,,0.00,223.0,WeatherDisplay:10.37,2013-11-15 20:39:00,
2013-11-15 15:44:00,51.1,31.0,30.04,SSE,149,8.0,8.0,46,0.00,BKN,,0.00,98.0,WeatherDisplay:10.37,2013-11-15 20:44:00,
2013-11-15 15:49:00,50.3,30.3,30.04,SSE,147,4.5,9.2,46,0.00,BKN,,0.00,63.0,WeatherDisplay:10.37,2013-11-15 20:49:00,
2013-11-15 15:54:00,49.6,30.7,30.05,SW,224,5.1,9.2,48,0.00,BKN,,0.00,65.0,WeatherDisplay:10.37,2013-11-15 20:54:00,
2013-11-15 15:59:00,49.1,31.2,30.05,West,264,3.1,9.2,50,0.00,BKN,,0.00,91.0,WeatherDisplay:10.37,2013-11-15 20:59:00,
2013-11-15 16:04:00,48.8,30.5,30.05,SSE,167,1.8,5.8,49,0.00,BKN,,0.00,72.0,WeatherDisplay:10.37,2013-11-15 21:04:00,
2013-11-15 16:09:00,48.6,30.3,30.05,SSW,193,1.7,4.6,49,0.00,BKN,,0.00,84.0,WeatherDisplay:10.37,2013-11-15 21:09:00,
2013-11-15 16:14:00,48.5,30.2,30.05,SW,227,2.3,6.9,49,0.00,BKN,,0.00,62.0,WeatherDisplay:10.37,2013-11-15 21:14:00,
2013-11-15 16:19:00,48.3,30.0,30.05,SSW,194,3.4,6.9,49,0.00,BKN,,0.00,65.0,WeatherDisplay:10.37,2013-11-15 21:19:00,
2013-11-15 16:24:00,48.2,30.4,30.05,South,188,3.5,8.1,50,0.00,BKN,,0.00,58.0,WeatherDisplay:10.37,2013-11-15 21:24:00,
2013-11-15 16:29:00,48.1,30.3,30.05,South,174,3.3,5.8,50,0.00,BKN,,0.00,62.0,WeatherDisplay:10.37,2013-11-15 21:29:00,
2013-11-15 16:34:00,48.1,30.3,30.05,SW,233,4.5,4.5,50,0.00,BKN,,0.00,56.0,WeatherDisplay:10.37,2013-11-15 21:34:00,
2013-11-15 16:39:00,48.1,30.3,30.05,SSW,209,4.1,5.0,50,0.00,BKN,,0.00,51.0,WeatherDisplay:10.37,2013-11-15 21:39:00,
2013-11-15 16:44:00,48.2,29.9,30.05,SSE,148,3.9,3.9,49,0.00,BKN,,0.00,35.0,WeatherDisplay:10.37,2013-11-15 21:44:00,
2013-11-15 16:49:00,48.1,30.3,30.05,South,189,1.7,3.5,50,0.00,BKN,,0.00,26.0,WeatherDisplay:10.37,2013-11-15 21:49:00,
2013-11-15 16:54:00,47.9,30.1,30.05,South,183,3.2,5.8,50,0.00,BKN,,0.00,18.0,WeatherDisplay:10.37,2013-11-15 21:54:00,
2013-11-15 16:59:00,47.7,30.0,30.05,SE,144,2.7,4.6,50,0.00,BKN,,0.00,12.0,WeatherDisplay:10.37,2013-11-15 21:59:00,
2013-11-15 17:04:00,47.5,30.3,30.05,South,190,1.3,3.5,51,0.00,BKN,,0.00,7.0,WeatherDisplay:10.37,2013-11-15 22:04:00,
2013-11-15 17:09:00,47.3,30.1,30.06,SSW,202,1.9,3.5,51,0.00,BKN,,0.00,5.0,WeatherDisplay:10.37,2013-11-15 22:09:00,
2013-11-15 17:14:00,47.2,30.0,30.06,South,187,2.3,3.5,51,0.00,BKN,,0.00,0.0,WeatherDisplay:10.37,2013-11-15 22:14:00,
2013-11-15 17:19:00,47.2,30.5,30.06,South,186,1.9,3.5,52,0.00,BKN,,0.00,0.0,WeatherDisplay:10.37,2013-11-15 22:19:00,
2013-11-15 17:24:00,47.2,30.5,30.06,SSW,199,2.5,5.8,52,0.00,BKN,,0.00,0.0,WeatherDisplay:10.37,2013-11-15 22:24:00,
2013-11-15 17:29:00,47.2,30.5,30.06,SSE,159,3.1,6.0,52,0.00,BKN,,0.00,0.0,WeatherDisplay:10.37,2013-11-15 22:29:00,
2013-11-15 17:34:00,47.3,30.5,30.06,SW,232,1.7,4.0,52,0.00,BKN,,0.00,0.0,WeatherDisplay:10.37,2013-11-15 22:34:00,
2013-11-15 17:39:00,47.3,30.5,30.06,South,190,3.1,4.6,52,0.00,BKN,,0.00,0.0,WeatherDisplay:10.37,2013-11-15 22:39:00,
2013-11-15 17:44:00,47.3,30.5,30.06,WSW,248,1.7,3.5,52,0.00,BKN,,0.00,0.0,WeatherDisplay:10.37,2013-11-15 22:44:00,
2013-11-15 17:49:00,47.3,30.5,30.06,SSW,192,3.1,5.8,52,0.00,BKN,,0.00,0.0,WeatherDisplay:10.37,2013-11-15 22:49:00,
2013-11-15 17:54:00,47.4,30.6,30.06,South,191,3.0,5.8,52,0.00,BKN,,0.00,0.0,WeatherDisplay:10.37,2013-11-15 22:54:00,
2013-11-15 17:59:00,47.4,30.6,30.06,SSW,207,3.7,5.8,52,0.00,BKN,,0.00,0.0,WeatherDisplay:10.37,2013-11-15 22:59:00,
2013-11-15 18:04:00,47.4,30.6,30.07,SSE,163,2.6,3.5,52,0.00,OVC,,0.00,0.0,WeatherDisplay:10.37,2013-11-15 23:04:00,
2013-11-15 18:09:00,47.4,30.6,30.07,SW,226,2.7,5.0,52,0.00,OVC,,0.00,0.0,WeatherDisplay:10.37,2013-11-15 23:09:00,
2013-11-15 18:14:00,47.3,30.5,30.07,SSW,198,1.8,3.5,52,0.00,OVC,,0.00,0.0,WeatherDisplay:10.37,2013-11-15 23:14:00,
2013-11-15 18:19:00,47.3,30.5,30.07,West,267,3.6,9.0,52,0.00,OVC,,0.00,0.0,WeatherDisplay:10.37,2013-11-15 23:19:00,
2013-11-15 18:24:00,47.3,30.5,30.07,SW,218,3.4,8.1,52,0.00,OVC,,0.00,0.0,WeatherDisplay:10.37,2013-11-15 23:24:00,
2013-11-15 18:29:00,47.2,30.5,30.07,South,175,2.5,6.9,52,0.00,OVC,,0.00,0.0,WeatherDisplay:10.37,2013-11-15 23:29:00,
2013-11-15 18:34:00,47.1,30.4,30.08,SW,236,3.5,5.0,52,0.00,OVC,,0.00,0.0,WeatherDisplay:10.37,2013-11-15 23:34:00,
2013-11-15 18:39:00,47.1,30.4,30.07,South,183,1.4,3.5,52,0.00,OVC,,0.00,0.0,WeatherDisplay:10.37,2013-11-15 23:39:00,
2013-11-15 18:44:00,47.0,30.7,30.07,SSW,200,1.8,3.5,53,0.00,OVC,,0.00,0.0,WeatherDisplay:10.37,2013-11-15 23:44:00,
2013-11-15 18:49:00,46.9,30.6,30.08,South,182,0.0,1.2,53,0.00,OVC,,0.00,0.0,WeatherDisplay:10.37,2013-11-15 23:49:00,
2013-11-15 18:54:00,46.9,30.6,30.08,South,182,2.0,4.6,53,0.00,OVC,,0.00,0.0,WeatherDisplay:10.37,2013-11-15 23:54:00,
2013-11-15 18:59:00,46.8,30.6,30.08,SW,221,3.3,6.9,53,0.00,OVC,,0.00,0.0,WeatherDisplay:10.37,2013-11-15 23:59:00,
2013-11-15 19:04:00,46.7,30.9,30.07,West,269,3.1,3.5,54,0.00,OVC,,0.00,0.0,WeatherDisplay:10.37,2013-11-16 00:04:00,
2013-11-15 19:09:00,46.7,30.9,30.07,SW,224,1.0,2.3,54,0.00,OVC,,0.00,0.0,WeatherDisplay:10.37,2013-11-16 00:09:00,
2013-11-15 19:14:00,46.6,30.8,30.07,SSE,164,1.9,3.5,54,0.00,OVC,,0.00,0.0,WeatherDisplay:10.37,2013-11-16 00:14:00,
2013-11-15 19:19:00,46.6,30.8,30.07,SW,235,2.1,4.6,54,0.00,OVC,,0.00,0.0,WeatherDisplay:10.37,2013-11-16 00:19:00,
2013-11-15 19:24:00,46.5,30.7,30.07,SSW,212,2.1,3.5,54,0.00,OVC,,0.00,0.0,WeatherDisplay:10.37,2013-11-16 00:24:00,
2013-11-15 19:29:00,46.4,31.1,30.07,SSW,197,3.9,5.8,55,0.00,OVC,,0.00,0.0,WeatherDisplay:10.37,2013-11-16 00:29:00,
2013-11-15 19:34:00,46.3,31.0,30.07,SSE,163,0.9,3.5,55,0.00,OVC,,0.00,0.0,WeatherDisplay:10.37,2013-11-16 00:34:00,
2013-11-15 19:39:00,46.1,30.8,30.07,South,183,2.0,3.5,55,0.00,OVC,,0.00,0.0,WeatherDisplay:10.37,2013-11-16 00:39:00,
2013-11-15 19:44:00,45.9,31.1,30.07,South,171,1.0,2.3,56,0.00,OVC,,0.00,0.0,WeatherDisplay:10.37,2013-11-16 00:44:00,
2013-11-15 19:49:00,45.7,30.9,30.08,SSE,167,1.3,3.5,56,0.00,OVC,,0.00,0.0,WeatherDisplay:10.37,2013-11-16 00:49:00,
2013-11-15 19:54:00,45.5,31.1,30.08,SSW,205,2.5,3.5,57,0.00,OVC,,0.00,0.0,WeatherDisplay:10.37,2013-11-16 00:54:00,
2013-11-15 19:59:00,45.3,31.0,30.08,SSW,209,1.2,2.3,57,0.00,OVC,,0.00,0.0,WeatherDisplay:10.37,2013-11-16 00:59:00,
2013-11-15 20:04:00,45.1,31.2,30.08,SSW,207,1.7,3.5,58,0.00,OVC,,0.00,0.0,WeatherDisplay:10.37,2013-11-16 01:04:00,
2013-11-15 20:09:00,45.0,31.1,30.08,SSE,168,1.6,3.5,58,0.00,OVC,,0.00,0.0,WeatherDisplay:10.37,2013-11-16 01:09:00,
2013-11-15 20:14:00,44.9,31.0,30.08,South,188,1.0,3.5,58,0.00,OVC,,0.00,0.0,WeatherDisplay:10.37,2013-11-16 01:14:00,
2013-11-15 20:19:00,44.9,31.4,30.08,SSE,155,1.7,4.0,59,0.00,OVC,,0.00,0.0,WeatherDisplay:10.37,2013-11-16 01:19:00,
2013-11-15 20:24:00,44.7,31.2,30.08,SSE,164,1.5,3.5,59,0.00,OVC,,0.00,0.0,WeatherDisplay:10.37,2013-11-16 01:24:00,
2013-11-15 20:29:00,44.6,31.1,30.08,SSE,148,2.6,5.0,59,0.00,OVC,,0.00,0.0,WeatherDisplay:10.37,2013-11-16 01:29:00,
2013-11-15 20:34:00,44.5,31.1,30.08,South,175,1.2,2.3,59,0.00,OVC,,0.00,0.0,WeatherDisplay:10.37,2013-11-16 01:34:00,
2013-11-15 20:39:00,44.4,31.4,30.08,South,185,1.7,3.5,60,0.00,OVC,,0.00,0.0,WeatherDisplay:10.37,2013-11-16 01:39:00,
2013-11-15 20:44:00,44.2,31.2,30.08,South,184,1.6,3.5,60,0.00,OVC,,0.00,0.0,WeatherDisplay:10.37,2013-11-16 01:44:00,
2013-11-15 20:49:00,44.1,31.5,30.09,SSE,157,0.6,2.3,61,0.00,OVC,,0.00,0.0,WeatherDisplay:10.37,2013-11-16 01:49:00,
2013-11-15 20:54:00,44.0,31.4,30.09,SSE,154,0.7,2.0,61,0.00,OVC,,0.00,0.0,WeatherDisplay:10.37,2013-11-16 01:54:00,
2013-11-15 20:59:00,44.0,31.4,30.09,SSE,161,1.3,3.0,61,0.00,OVC,,0.00,0.0,WeatherDisplay:10.37,2013-11-16 01:59:00,
2013-11-15 21:04:00,44.0,31.4,30.09,SSE,165,1.8,3.5,61,0.00,BKN,,0.00,0.0,WeatherDisplay:10.37,2013-11-16 02:04:00,
2013-11-15 21:09:00,44.0,31.4,30.09,South,183,1.9,3.5,61,0.00,BKN,,0.00,0.0,WeatherDisplay:10.37,2013-11-16 02:09:00,
2013-11-15 21:14:00,44.1,31.5,30.09,SSW,194,2.2,5.0,61,0.00,BKN,,0.00,0.0,WeatherDisplay:10.37,2013-11-16 02:14:00,
2013-11-15 21:19:00,44.1,31.5,30.09,South,172,0.4,1.2,61,0.00,BKN,,0.00,0.0,WeatherDisplay:10.37,2013-11-16 02:19:00,
2013-11-15 21:24:00,44.0,31.8,30.08,SE,142,1.1,3.0,62,0.00,BKN,,0.00,0.0,WeatherDisplay:10.37,2013-11-16 02:24:00,
2013-11-15 21:29:00,44.0,31.8,30.09,SSE,168,2.5,3.5,62,0.00,BKN,,0.00,0.0,WeatherDisplay:10.37,2013-11-16 02:29:00,
2013-11-15 21:34:00,44.0,31.8,30.09,SSE,157,0.6,2.0,62,0.00,BKN,,0.00,0.0,WeatherDisplay:10.37,2013-11-16 02:34:00,
2013-11-15 21:39:00,44.0,31.8,30.09,SE,142,0.4,3.5,62,0.00,BKN,,0.00,0.0,WeatherDisplay:10.37,2013-11-16 02:39:00,
2013-11-15 21:44:00,44.1,31.9,30.09,South,175,0.5,3.5,62,0.00,BKN,,0.00,0.0,WeatherDisplay:10.37,2013-11-16 02:44:00,
2013-11-15 21:49:00,44.2,31.6,30.09,South,188,2.9,3.5,61,0.00,BKN,,0.00,0.0,WeatherDisplay:10.37,2013-11-16 02:49:00,
2013-11-15 21:54:00,44.2,31.6,30.09,South,169,0.7,2.3,61,0.00,BKN,,0.00,0.0,WeatherDisplay:10.37,2013-11-16 02:54:00,
2013-11-15 21:59:00,44.1,31.5,30.09,South,173,1.1,2.3,61,0.00,BKN,,0.00,0.0,WeatherDisplay:10.37,2013-11-16 02:59:00,
2013-11-15 22:04:00,44.0,31.8,30.09,South,170,2.0,3.5,62,0.00,BKN,,0.00,0.0,WeatherDisplay:10.37,2013-11-16 03:04:00,
2013-11-15 22:09:00,43.9,31.7,30.09,South,188,1.8,4.0,62,0.00,BKN,,0.00,0.0,WeatherDisplay:10.37,2013-11-16 03:09:00,
2013-11-15 22:14:00,43.9,31.7,30.10,WSW,246,0.1,2.3,62,0.00,BKN,,0.00,0.0,WeatherDisplay:10.37,2013-11-16 03:14:00,
2013-11-15 22:19:00,43.8,31.6,30.10,South,190,2.4,4.6,62,0.00,BKN,,0.00,0.0,WeatherDisplay:10.37,2013-11-16 03:19:00,
2013-11-15 22:24:00,43.8,31.6,30.10,South,172,0.9,3.5,62,0.00,BKN,,0.00,0.0,WeatherDisplay:10.37,2013-11-16 03:24:00,
2013-11-15 22:29:00,43.8,31.6,30.10,South,169,0.0,0.0,62,0.00,BKN,,0.00,0.0,WeatherDisplay:10.37,2013-11-16 03:29:00,
2013-11-15 22:34:00,43.7,31.5,30.10,SSW,208,3.2,3.5,62,0.00,BKN,,0.00,0.0,WeatherDisplay:10.37,2013-11-16 03:34:00,
2013-11-15 22:39:00,43.5,31.3,30.10,SSW,194,2.0,3.5,62,0.00,BKN,,0.00,0.0,WeatherDisplay:10.37,2013-11-16 03:39:00,
2013-11-15 22:44:00,43.3,31.1,30.10,South,181,0.3,1.2,62,0.00,BKN,,0.00,0.0,WeatherDisplay:10.37,2013-11-16 03:44:00,
2013-11-15 22:49:00,43.0,31.3,30.09,South,173,0.0,0.0,63,0.00,BKN,,0.00,0.0,WeatherDisplay:10.37,2013-11-16 03:49:00,
2013-11-15 22:54:00,42.8,31.1,30.09,SSE,164,0.0,0.0,63,0.00,BKN,,0.00,0.0,WeatherDisplay:10.37,2013-11-16 03:54:00,
2013-11-15 22:59:00,42.5,31.2,30.09,SSE,164,0.0,0.0,64,0.00,BKN,,0.00,0.0,WeatherDisplay:10.37,2013-11-16 03:59:00,
2013-11-15 23:04:00,42.2,30.9,30.09,SSE,164,0.0,0.0,64,0.00,BKN,,0.00,0.0,WeatherDisplay:10.37,2013-11-16 04:04:00,
2013-11-15 23:09:00,41.8,30.9,30.10,SSE,166,0.0,0.0,65,0.00,BKN,,0.00,0.0,WeatherDisplay:10.37,2013-11-16 04:09:00,
2013-11-15 23:14:00,41.4,30.9,30.09,SSE,166,0.0,0.0,66,0.00,BKN,,0.00,0.0,WeatherDisplay:10.37,2013-11-16 04:14:00,
2013-11-15 23:19:00,41.1,30.6,30.09,SSE,165,0.0,0.0,66,0.00,BKN,,0.00,0.0,WeatherDisplay:10.37,2013-11-16 04:19:00,
2013-11-15 23:24:00,40.7,30.6,30.10,SSE,165,0.0,0.0,67,0.00,BKN,,0.00,0.0,WeatherDisplay:10.37,2013-11-16 04:24:00,
2013-11-15 23:29:00,40.4,30.7,30.10,SSE,165,0.0,0.0,68,0.00,BKN,,0.00,0.0,WeatherDisplay:10.37,2013-11-16 04:29:00,
2013-11-15 23:34:00,40.1,30.7,30.10,SSE,164,0.0,0.0,69,0.00,BKN,,0.00,0.0,WeatherDisplay:10.37,2013-11-16 04:34:00,
2013-11-15 23:39:00,39.9,30.9,30.11,SSE,164,0.0,0.0,70,0.00,BKN,,0.00,0.0,WeatherDisplay:10.37,2013-11-16 04:39:00,
2013-11-15 23:44:00,39.7,30.7,30.11,SSE,159,0.0,0.0,70,0.00,BKN,,0.00,0.0,WeatherDisplay:10.37,2013-11-16 04:44:00,
2013-11-15 23:49:00,40.0,31.4,30.11,SSE,161,1.5,3.5,71,0.00,BKN,,0.00,0.0,WeatherDisplay:10.37,2013-11-16 04:49:00,
2013-11-15 23:54:00,40.4,31.4,30.11,SSE,166,0.1,3.5,70,0.00,BKN,,0.00,0.0,WeatherDisplay:10.37,2013-11-16 04:54:00,
2013-11-15 23:59:00,41.0,32.0,30.11,WSW,257,1.8,3.5,70,0.00,BKN,,0.00,0.0,WeatherDisplay:10.37,2013-11-16 04:59:00,